Time,TemperatureF,DewpointF,PressureIn,WindDirection,WindDirectionDegrees,WindSpeedMPH,WindSpeedGustMPH,Humidity,HourlyPrecipIn,Conditions,Clouds,dailyrainin,SoftwareType,DateUTC
2014-02-03 00:01:00,20.5,15.3,30.25,NNW,337,11.4,11.4,80,0.00,,,0.02,WUHU21623XXSP,2014-02-03 05:01:00,
2014-02-03 00:10:00,20.5,15.3,30.25,NNW,337,11.4,11.4,80,0.00,,,0.00,WUHU21623XXSP,2014-02-03 05:10:00,
2014-02-03 00:15:00,20.5,15.3,30.24,NNW,337,8.5,11.4,80,0.00,,,0.00,WUHU21623XXSP,2014-02-03 05:15:00,
2014-02-03 00:20:00,20.5,15.3,30.24,NNW,337,9.8,9.8,80,0.00,,,0.00,WUHU21623XXSP,2014-02-03 05:20:00,
2014-02-03 00:25:00,20.5,15.3,30.24,NNW,337,6.3,9.8,80,0.00,,,0.00,WUHU21623XXSP,2014-02-03 05:25:00,
2014-02-03 00:30:00,20.3,15.1,30.25,NNW,337,7.2,9.8,80,0.00,,,0.00,WUHU21623XXSP,2014-02-03 05:30:00,
2014-02-03 00:35:00,20.3,15.1,30.25,NNW,337,7.2,8.7,80,0.00,,,0.00,WUHU21623XXSP,2014-02-03 05:35:00,
2014-02-03 00:40:00,20.3,15.1,30.26,NNW,337,6.3,8.9,80,0.00,,,0.00,WUHU21623XXSP,2014-02-03 05:40:00,
2014-02-03 00:45:00,20.3,15.1,30.25,NNW,337,6.7,8.9,80,0.00,,,0.00,WUHU21623XXSP,2014-02-03 05:45:00,
2014-02-03 00:50:00,20.3,15.1,30.24,NNW,337,5.8,9.2,80,0.00,,,0.00,WUHU21623XXSP,2014-02-03 05:50:00,
2014-02-03 00:55:00,20.3,15.1,30.24,NNW,337,6.5,9.6,80,0.00,,,0.00,WUHU21623XXSP,2014-02-03 05:55:00,
2014-02-03 01:00:00,20.1,14.9,30.24,NNW,337,6.9,9.6,80,0.00,,,0.00,WUHU21623XXSP,2014-02-03 06:00:00,
2014-02-03 01:10:00,20.1,14.9,30.24,NNW,337,6.9,6.9,80,0.00,,,0.00,WUHU21623XXSP,2014-02-03 06:10:00,
2014-02-03 01:15:00,20.1,15.2,30.23,NNW,337,6.5,8.1,81,0.00,,,0.00,WUHU21623XXSP,2014-02-03 06:15:00,
2014-02-03 01:20:00,20.1,15.2,30.23,NNW,337,7.2,8.1,81,0.00,,,0.00,WUHU21623XXSP,2014-02-03 06:20:00,
2014-02-03 01:25:00,20.1,15.2,30.25,NNW,337,6.0,8.9,81,0.00,,,0.00,WUHU21623XXSP,2014-02-03 06:25:00,
2014-02-03 01:30:00,20.1,15.2,30.26,NNW,337,7.4,8.9,81,0.00,,,0.00,WUHU21623XXSP,2014-02-03 06:30:00,
2014-02-03 01:35:00,20.1,15.2,30.26,NNW,337,7.8,7.8,81,0.00,,,0.00,WUHU21623XXSP,2014-02-03 06:35:00,
2014-02-03 01:40:00,20.1,15.2,30.26,NNW,337,6.7,7.8,81,0.00,,,0.00,WUHU21623XXSP,2014-02-03 06:40:00,
2014-02-03 01:45:00,20.1,15.2,30.25,NNW,337,5.8,7.8,81,0.00,,,0.00,WUHU21623XXSP,2014-02-03 06:45:00,
2014-02-03 01:50:00,20.1,15.2,30.25,NNW,337,4.7,7.8,81,0.00,,,0.00,WUHU21623XXSP,2014-02-03 06:50:00,
2014-02-03 01:55:00,20.1,15.2,30.26,NNW,337,6.0,6.5,81,0.00,,,0.00,WUHU21623XXSP,2014-02-03 06:55:00,
2014-02-03 02:00:00,20.1,15.2,30.24,NNW,337,7.4,7.4,81,0.00,,,0.00,WUHU21623XXSP,2014-02-03 07:00:00,
2014-02-03 02:05:00,20.1,15.2,30.24,NNW,337,8.9,8.9,81,0.00,,,0.00,WUHU21623XXSP,2014-02-03 07:05:00,
2014-02-03 02:10:00,20.1,15.2,30.23,NNW,337,8.5,8.9,81,0.00,,,0.00,WUHU21623XXSP,2014-02-03 07:10:00,
2014-02-03 02:15:00,19.9,15.0,30.23,NNW,337,11.4,11.4,81,0.00,,,0.00,WUHU21623XXSP,2014-02-03 07:15:00,
2014-02-03 02:20:00,19.9,15.0,30.23,NNW,337,9.4,11.4,81,0.00,,,0.00,WUHU21623XXSP,2014-02-03 07:20:00,
2014-02-03 02:25:00,19.8,14.8,30.23,NNW,337,5.1,9.4,81,0.00,,,0.00,WUHU21623XXSP,2014-02-03 07:25:00,
2014-02-03 02:30:00,19.6,14.6,30.24,NNW,337,7.4,8.3,81,0.00,,,0.00,WUHU21623XXSP,2014-02-03 07:30:00,
2014-02-03 02:35:00,19.6,14.6,30.23,NNW,337,10.1,10.1,81,0.00,,,0.00,WUHU21623XXSP,2014-02-03 07:35:00,
2014-02-03 02:40:00,19.6,14.6,30.23,NNW,337,5.1,10.1,81,0.00,,,0.00,WUHU21623XXSP,2014-02-03 07:40:00,
2014-02-03 02:45:00,19.2,14.3,30.24,NNW,337,6.9,10.1,81,0.00,,,0.00,WUHU21623XXSP,2014-02-03 07:45:00,
2014-02-03 02:50:00,19.0,14.1,30.25,NNW,337,7.2,7.2,81,0.00,,,0.00,WUHU21623XXSP,2014-02-03 07:50:00,
2014-02-03 02:55:00,18.7,13.5,30.25,NNW,337,6.9,7.2,80,0.00,,,0.00,WUHU21623XXSP,2014-02-03 07:55:00,
2014-02-03 03:00:00,18.3,13.1,30.25,NNW,337,8.9,9.8,80,0.00,,,0.00,WUHU21623XXSP,2014-02-03 08:00:00,
2014-02-03 03:05:00,18.1,12.9,30.25,NNW,337,6.9,9.8,80,0.00,,,0.00,WUHU21623XXSP,2014-02-03 08:05:00,
2014-02-03 03:10:00,17.8,12.6,30.25,NNW,337,8.7,8.7,80,0.00,,,0.00,WUHU21623XXSP,2014-02-03 08:10:00,
2014-02-03 03:15:00,17.4,12.2,30.24,NNW,337,7.4,8.7,80,0.00,,,0.00,WUHU21623XXSP,2014-02-03 08:15:00,
2014-02-03 03:20:00,17.4,12.2,30.24,NNW,337,8.7,8.7,80,0.00,,,0.00,WUHU21623XXSP,2014-02-03 08:20:00,
2014-02-03 03:25:00,17.2,12.3,30.24,NNW,337,9.8,9.8,81,0.00,,,0.00,WUHU21623XXSP,2014-02-03 08:25:00,
2014-02-03 03:30:00,17.2,12.3,30.24,NNW,337,6.5,9.8,81,0.00,,,0.00,WUHU21623XXSP,2014-02-03 08:30:00,
2014-02-03 03:35:00,16.9,12.0,30.24,NNW,337,8.3,8.3,81,0.00,,,0.00,WUHU21623XXSP,2014-02-03 08:35:00,
2014-02-03 03:40:00,16.9,12.0,30.24,NNW,337,6.7,9.4,81,0.00,,,0.00,WUHU21623XXSP,2014-02-03 08:40:00,
2014-02-03 03:45:00,16.9,12.0,30.24,NNW,337,6.5,9.6,81,0.00,,,0.00,WUHU21623XXSP,2014-02-03 08:45:00,
2014-02-03 03:50:00,16.7,11.8,30.24,NNW,337,7.8,9.6,81,0.00,,,0.00,WUHU21623XXSP,2014-02-03 08:50:00,
2014-02-03 03:55:00,16.7,11.8,30.24,NNW,337,7.4,8.9,81,0.00,,,0.00,WUHU21623XXSP,2014-02-03 08:55:00,
2014-02-03 04:00:00,16.7,11.8,30.23,NNW,337,7.6,8.5,81,0.00,,,0.00,WUHU21623XXSP,2014-02-03 09:00:00,
2014-02-03 04:05:00,16.5,11.7,30.22,NNW,337,8.3,10.7,81,0.00,,,0.00,WUHU21623XXSP,2014-02-03 09:05:00,
2014-02-03 04:10:00,16.3,11.5,30.22,NNW,337,9.4,10.7,81,0.00,,,0.00,WUHU21623XXSP,2014-02-03 09:10:00,
2014-02-03 04:15:00,16.3,11.8,30.22,NNW,337,10.5,10.5,82,0.00,,,0.00,WUHU21623XXSP,2014-02-03 09:15:00,
2014-02-03 04:20:00,16.3,11.8,30.22,NNW,337,9.2,10.5,82,0.00,,,0.00,WUHU21623XXSP,2014-02-03 09:20:00,
2014-02-03 04:25:00,16.3,11.8,30.23,NNW,337,8.1,9.2,82,0.00,,,0.00,WUHU21623XXSP,2014-02-03 09:25:00,
2014-02-03 04:30:00,16.0,11.4,30.24,NNW,337,8.1,8.9,82,0.00,,,0.00,WUHU21623XXSP,2014-02-03 09:30:00,
2014-02-03 04:35:00,16.0,11.4,30.24,NNW,337,9.2,9.2,82,0.00,,,0.00,WUHU21623XXSP,2014-02-03 09:35:00,
2014-02-03 04:40:00,15.8,11.0,30.24,NNW,337,6.0,9.2,81,0.00,,,0.00,WUHU21623XXSP,2014-02-03 09:40:00,
2014-02-03 04:45:00,15.6,10.8,30.25,NNW,337,6.5,7.2,81,0.00,,,0.00,WUHU21623XXSP,2014-02-03 09:45:00,
2014-02-03 04:50:00,15.4,10.7,30.25,NNW,337,8.3,8.3,81,0.00,,,0.00,WUHU21623XXSP,2014-02-03 09:50:00,
2014-02-03 04:55:00,15.4,10.7,30.25,NNW,337,7.6,8.7,81,0.00,,,0.00,WUHU21623XXSP,2014-02-03 09:55:00,
2014-02-03 05:00:00,15.4,10.9,30.26,NNW,337,7.8,8.7,82,0.00,,,0.00,WUHU21623XXSP,2014-02-03 10:00:00,
2014-02-03 05:05:00,15.3,10.7,30.25,NNW,337,6.9,7.8,82,0.00,,,0.00,WUHU21623XXSP,2014-02-03 10:05:00,
2014-02-03 05:10:00,15.1,10.5,30.25,NNW,337,5.8,7.8,82,0.00,,,0.00,WUHU21623XXSP,2014-02-03 10:10:00,
2014-02-03 05:15:00,15.1,10.5,30.26,NNW,337,5.6,7.2,82,0.00,,,0.00,WUHU21623XXSP,2014-02-03 10:15:00,
2014-02-03 05:20:00,14.9,10.4,30.26,NNW,337,6.5,7.8,82,0.00,,,0.00,WUHU21623XXSP,2014-02-03 10:20:00,
2014-02-03 05:25:00,14.7,10.2,30.26,NNW,337,7.4,7.8,82,0.00,,,0.00,WUHU21623XXSP,2014-02-03 10:25:00,
2014-02-03 05:30:00,14.7,10.2,30.26,NNW,337,6.7,8.3,82,0.00,,,0.00,WUHU21623XXSP,2014-02-03 10:30:00,
2014-02-03 05:35:00,14.7,10.2,30.26,NNW,337,7.2,8.3,82,0.00,,,0.00,WUHU21623XXSP,2014-02-03 10:35:00,
2014-02-03 05:40:00,14.7,10.2,30.27,NNW,337,5.4,7.2,82,0.00,,,0.00,WUHU21623XXSP,2014-02-03 10:40:00,
2014-02-03 05:45:00,14.7,10.2,30.27,NNW,337,4.7,7.2,82,0.00,,,0.00,WUHU21623XXSP,2014-02-03 10:45:00,
2014-02-03 05:50:00,14.7,10.2,30.27,NNW,337,6.7,7.2,82,0.00,,,0.00,WUHU21623XXSP,2014-02-03 10:50:00,
2014-02-03 05:55:00,14.7,10.2,30.27,NNW,337,6.7,6.7,82,0.00,,,0.00,WUHU21623XXSP,2014-02-03 10:55:00,
2014-02-03 06:00:00,14.7,10.2,30.27,NNW,337,6.3,6.9,82,0.00,,,0.00,WUHU21623XXSP,2014-02-03 11:00:00,
2014-02-03 06:05:00,14.5,10.0,30.27,NNW,337,6.7,6.9,82,0.00,,,0.00,WUHU21623XXSP,2014-02-03 11:05:00,
2014-02-03 06:10:00,14.5,10.0,30.27,NNW,337,4.3,7.4,82,0.00,,,0.00,WUHU21623XXSP,2014-02-03 11:10:00,
2014-02-03 06:15:00,14.5,10.0,30.27,NNW,337,7.6,7.6,82,0.00,,,0.00,WUHU21623XXSP,2014-02-03 11:15:00,
2014-02-03 06:20:00,14.4,9.8,30.27,NNW,337,7.4,7.8,82,0.00,,,0.00,WUHU21623XXSP,2014-02-03 11:20:00,
2014-02-03 06:25:00,14.4,9.8,30.28,NNW,337,7.2,7.8,82,0.00,,,0.00,WUHU21623XXSP,2014-02-03 11:25:00,
2014-02-03 06:30:00,14.2,9.7,30.28,NNW,337,5.6,7.6,82,0.00,,,0.00,WUHU21623XXSP,2014-02-03 11:30:00,
2014-02-03 06:35:00,14.2,9.7,30.28,NNW,337,7.6,7.6,82,0.00,,,0.00,WUHU21623XXSP,2014-02-03 11:35:00,
2014-02-03 06:40:00,13.6,9.1,30.28,NNW,337,6.7,7.6,82,0.00,,,0.00,WUHU21623XXSP,2014-02-03 11:40:00,
2014-02-03 06:45:00,13.6,9.1,30.29,NNW,337,7.2,7.2,82,0.00,,,0.00,WUHU21623XXSP,2014-02-03 11:45:00,
2014-02-03 06:50:00,13.3,8.8,30.29,NNW,337,6.9,8.3,82,0.00,,,0.00,WUHU21623XXSP,2014-02-03 11:50:00,
2014-02-03 06:55:00,13.3,8.8,30.29,NNW,337,7.6,8.3,82,0.00,,,0.00,WUHU21623XXSP,2014-02-03 11:55:00,
2014-02-03 07:00:00,12.9,8.4,30.29,NNW,337,9.2,9.2,82,0.00,,,0.00,WUHU21623XXSP,2014-02-03 12:00:00,
2014-02-03 07:05:00,12.9,8.4,30.30,NNW,337,7.8,9.2,82,0.00,,,0.00,WUHU21623XXSP,2014-02-03 12:05:00,
2014-02-03 07:10:00,12.9,8.4,30.29,NNW,337,5.1,7.8,82,0.00,,,0.00,WUHU21623XXSP,2014-02-03 12:10:00,
2014-02-03 07:15:00,12.9,8.4,30.30,NNW,337,7.4,7.4,82,0.00,,,0.00,WUHU21623XXSP,2014-02-03 12:15:00,
2014-02-03 07:20:00,12.7,8.2,30.30,NNW,337,7.4,7.4,82,0.00,,,0.00,WUHU21623XXSP,2014-02-03 12:20:00,
2014-02-03 07:25:00,12.7,8.2,30.30,NNW,337,7.6,7.6,82,0.00,,,0.00,WUHU21623XXSP,2014-02-03 12:25:00,
2014-02-03 07:30:00,12.6,8.1,30.30,NNW,337,4.9,7.6,82,0.00,,,0.00,WUHU21623XXSP,2014-02-03 12:30:00,
2014-02-03 07:35:00,12.2,7.7,30.31,NNW,337,6.5,6.5,82,0.00,,,0.00,WUHU21623XXSP,2014-02-03 12:35:00,
2014-02-03 07:40:00,12.0,7.5,30.31,NNW,337,5.6,6.5,82,0.00,,,0.00,WUHU21623XXSP,2014-02-03 12:40:00,
2014-02-03 07:45:00,11.8,7.3,30.31,NNW,337,0.0,5.8,82,0.00,,,0.00,WUHU21623XXSP,2014-02-03 12:45:00,
2014-02-03 07:50:00,11.8,7.3,30.32,NNW,337,0.0,6.5,82,0.00,,,0.00,WUHU21623XXSP,2014-02-03 12:50:00,
2014-02-03 07:55:00,11.8,7.3,30.32,NNW,337,0.0,6.5,82,0.00,,,0.00,WUHU21623XXSP,2014-02-03 12:55:00,
2014-02-03 08:00:00,11.7,7.2,30.32,NNW,337,0.0,0.0,82,0.00,,,0.00,WUHU21623XXSP,2014-02-03 13:00:00,
2014-02-03 08:05:00,11.7,7.2,30.33,NNW,337,0.0,0.0,82,0.00,,,0.00,WUHU21623XXSP,2014-02-03 13:05:00,
2014-02-03 08:10:00,11.3,7.0,30.33,NNW,337,0.0,0.0,82,0.00,,,0.00,WUHU21623XXSP,2014-02-03 13:10:00,
2014-02-03 08:15:00,11.3,6.8,30.33,NNW,337,0.0,0.0,82,0.00,,,0.00,WUHU21623XXSP,2014-02-03 13:15:00,
2014-02-03 08:20:00,11.1,6.8,30.34,NNW,337,0.0,0.0,82,0.00,,,0.00,WUHU21623XXSP,2014-02-03 13:20:00,
2014-02-03 08:25:00,11.1,6.9,30.33,NNW,337,0.0,0.0,83,0.00,,,0.00,WUHU21623XXSP,2014-02-03 13:25:00,
2014-02-03 08:30:00,11.1,6.9,30.34,NNW,337,0.0,0.0,83,0.00,,,0.00,WUHU21623XXSP,2014-02-03 13:30:00,
2014-02-03 08:35:00,11.1,6.9,30.34,NNW,337,0.0,0.0,83,0.00,,,0.00,WUHU21623XXSP,2014-02-03 13:35:00,
2014-02-03 08:40:00,11.3,7.1,30.34,NNW,337,0.0,0.0,83,0.00,,,0.00,WUHU21623XXSP,2014-02-03 13:40:00,
2014-02-03 08:45:00,11.5,7.3,30.34,NNW,337,0.0,0.0,83,0.00,,,0.00,WUHU21623XXSP,2014-02-03 13:45:00,
2014-02-03 08:50:00,11.5,7.3,30.35,NNW,337,0.0,0.0,83,0.00,,,0.00,WUHU21623XXSP,2014-02-03 13:50:00,
2014-02-03 08:55:00,11.8,7.6,30.35,NNW,337,0.0,0.0,83,0.00,,,0.00,WUHU21623XXSP,2014-02-03 13:55:00,
2014-02-03 09:00:00,12.2,8.0,30.35,NNW,337,0.0,0.0,83,0.00,,,0.00,WUHU21623XXSP,2014-02-03 14:00:00,
2014-02-03 09:05:00,12.6,8.3,30.35,NNW,337,3.4,3.4,83,0.00,,,0.00,WUHU21623XXSP,2014-02-03 14:05:00,
2014-02-03 09:10:00,12.9,8.7,30.35,NNW,337,7.2,7.2,83,0.00,,,0.00,WUHU21623XXSP,2014-02-03 14:10:00,
2014-02-03 09:15:00,13.1,8.9,30.35,NNW,337,6.9,7.2,83,0.00,,,0.00,WUHU21623XXSP,2014-02-03 14:15:00,
2014-02-03 09:20:00,13.3,9.1,30.35,NNW,337,6.9,6.9,83,0.00,,,0.00,WUHU21623XXSP,2014-02-03 14:20:00,
2014-02-03 09:25:00,13.6,9.4,30.36,NNW,337,4.7,6.9,83,0.00,,,0.00,WUHU21623XXSP,2014-02-03 14:25:00,
2014-02-03 09:30:00,13.8,9.6,30.36,NNW,337,7.6,7.6,83,0.00,,,0.00,WUHU21623XXSP,2014-02-03 14:30:00,
2014-02-03 09:35:00,14.2,9.9,30.36,NNW,337,7.2,7.6,83,0.00,,,0.00,WUHU21623XXSP,2014-02-03 14:35:00,
2014-02-03 09:40:00,14.7,10.5,30.36,NNW,337,2.0,7.2,83,0.00,,,0.00,WUHU21623XXSP,2014-02-03 14:40:00,
2014-02-03 09:45:00,15.1,10.8,30.36,NNW,337,6.5,6.5,83,0.00,,,0.00,WUHU21623XXSP,2014-02-03 14:45:00,
2014-02-03 09:50:00,15.3,11.0,30.36,NNW,337,6.9,7.2,83,0.00,,,0.00,WUHU21623XXSP,2014-02-03 14:50:00,
2014-02-03 09:55:00,15.4,11.2,30.36,NNW,337,7.6,7.6,83,0.00,,,0.00,WUHU21623XXSP,2014-02-03 14:55:00,
2014-02-03 10:00:00,15.6,11.1,30.36,NNW,337,6.5,7.6,82,0.00,,,0.00,WUHU21623XXSP,2014-02-03 15:00:00,
2014-02-03 10:05:00,15.8,11.3,30.36,NNW,337,6.0,6.5,82,0.00,,,0.00,WUHU21623XXSP,2014-02-03 15:05:00,
2014-02-03 10:10:00,16.2,11.4,30.36,NNW,337,4.9,6.7,82,0.00,,,0.00,WUHU21623XXSP,2014-02-03 15:10:00,
2014-02-03 10:15:00,16.5,11.9,30.36,NNW,337,5.8,6.7,82,0.00,,,0.00,WUHU21623XXSP,2014-02-03 15:15:00,
2014-02-03 10:20:00,16.7,12.1,30.36,NNW,337,0.4,6.5,82,0.00,,,0.00,WUHU21623XXSP,2014-02-03 15:20:00,
2014-02-03 10:25:00,17.1,12.1,30.37,NNW,337,6.9,6.9,81,0.00,,,0.00,WUHU21623XXSP,2014-02-03 15:25:00,
2014-02-03 10:30:00,17.2,12.3,30.36,NNW,337,7.2,7.2,81,0.00,,,0.00,WUHU21623XXSP,2014-02-03 15:30:00,
2014-02-03 10:35:00,17.4,12.2,30.36,NNW,337,4.5,7.2,80,0.00,,,0.00,WUHU21623XXSP,2014-02-03 15:35:00,
2014-02-03 10:40:00,18.0,12.7,30.36,NNW,337,5.6,6.7,80,0.00,,,0.00,WUHU21623XXSP,2014-02-03 15:40:00,
2014-02-03 10:45:00,18.1,12.9,30.37,NNW,337,4.5,5.8,80,0.00,,,0.00,WUHU21623XXSP,2014-02-03 15:45:00,
2014-02-03 10:50:00,18.7,13.5,30.37,NNW,337,5.8,5.8,80,0.00,,,0.00,WUHU21623XXSP,2014-02-03 15:50:00,
2014-02-03 10:55:00,19.6,14.1,30.37,NNW,337,0.0,6.3,79,0.00,,,0.00,WUHU21623XXSP,2014-02-03 15:55:00,
2014-02-03 11:00:00,20.1,14.6,30.37,NNW,337,3.4,6.3,79,0.00,,,0.00,WUHU21623XXSP,2014-02-03 16:00:00,
2014-02-03 11:05:00,20.5,15.0,30.37,NNW,337,5.4,5.4,79,0.00,,,0.00,WUHU21623XXSP,2014-02-03 16:05:00,
2014-02-03 11:10:00,21.4,15.2,30.37,NNW,337,5.4,5.4,78,0.00,,,0.00,WUHU21623XXSP,2014-02-03 16:10:00,
2014-02-03 11:15:00,21.9,15.8,30.37,NNW,337,0.4,5.4,77,0.00,,,0.00,WUHU21623XXSP,2014-02-03 16:15:00,
2014-02-03 11:20:00,22.6,16.2,30.37,NNW,337,0.7,4.5,76,0.00,,,0.00,WUHU21623XXSP,2014-02-03 16:20:00,
2014-02-03 11:25:00,23.2,16.4,30.37,NNW,337,3.6,4.5,75,0.00,,,0.00,WUHU21623XXSP,2014-02-03 16:25:00,
2014-02-03 11:30:00,23.7,16.9,30.37,NNW,337,0.0,3.6,75,0.00,,,0.00,WUHU21623XXSP,2014-02-03 16:30:00,
2014-02-03 11:35:00,24.1,17.0,30.37,NNW,337,0.0,1.1,74,0.00,,,0.00,WUHU21623XXSP,2014-02-03 16:35:00,
2014-02-03 11:40:00,25.0,17.5,30.37,NNW,337,0.0,6.3,73,0.00,,,0.00,WUHU21623XXSP,2014-02-03 16:40:00,
2014-02-03 11:45:00,25.5,17.7,30.37,NNW,337,0.0,6.3,72,0.00,,,0.00,WUHU21623XXSP,2014-02-03 16:45:00,
2014-02-03 11:50:00,25.5,17.7,30.38,NNW,337,3.8,5.1,72,0.00,,,0.00,WUHU21623XXSP,2014-02-03 16:50:00,
2014-02-03 11:55:00,25.7,17.5,30.37,NNW,337,0.0,3.8,71,0.00,,,0.00,WUHU21623XXSP,2014-02-03 16:55:00,
2014-02-03 12:00:00,25.9,17.4,30.36,NNW,337,4.7,4.7,70,0.00,,,0.00,WUHU21623XXSP,2014-02-03 17:00:00,
2014-02-03 12:05:00,25.9,17.4,30.35,NNW,337,6.5,6.5,70,0.00,,,0.00,WUHU21623XXSP,2014-02-03 17:05:00,
2014-02-03 12:10:00,26.2,17.6,30.36,NNW,337,0.0,6.5,69,0.00,,,0.00,WUHU21623XXSP,2014-02-03 17:10:00,
2014-02-03 12:15:00,26.4,17.6,30.36,NNW,337,5.8,6.5,69,0.00,,,0.00,WUHU21623XXSP,2014-02-03 17:15:00,
2014-02-03 12:20:00,26.8,18.0,30.36,NNW,337,0.0,5.8,69,0.00,,,0.00,WUHU21623XXSP,2014-02-03 17:20:00,
2014-02-03 12:25:00,27.1,18.3,30.35,NNW,337,0.0,0.0,69,0.00,,,0.00,WUHU21623XXSP,2014-02-03 17:25:00,
2014-02-03 12:30:00,27.7,18.1,30.36,NNW,337,0.0,0.0,68,0.00,,,0.00,WUHU21623XXSP,2014-02-03 17:30:00,
2014-02-03 12:35:00,28.0,18.9,30.36,NNW,337,0.0,0.0,68,0.00,,,0.00,WUHU21623XXSP,2014-02-03 17:35:00,
2014-02-03 12:40:00,30.0,20.3,30.36,NNW,337,0.0,0.0,67,0.00,,,0.00,WUHU21623XXSP,2014-02-03 17:40:00,
2014-02-03 12:45:00,30.7,21.0,30.36,NNW,337,0.0,0.0,67,0.00,,,0.00,WUHU21623XXSP,2014-02-03 17:45:00,
2014-02-03 12:50:00,31.8,21.7,30.36,NNW,337,0.0,0.0,66,0.00,,,0.00,WUHU21623XXSP,2014-02-03 17:50:00,
2014-02-03 12:55:00,32.9,22.0,30.36,NNW,337,0.0,0.0,64,0.00,,,0.00,WUHU21623XXSP,2014-02-03 17:55:00,
2014-02-03 13:00:00,33.1,21.8,30.36,NNW,337,0.0,0.0,63,0.00,,,0.00,WUHU21623XXSP,2014-02-03 18:00:00,
2014-02-03 13:05:00,33.6,22.1,30.36,NNW,337,0.0,0.0,63,0.00,,,0.00,WUHU21623XXSP,2014-02-03 18:05:00,
2014-02-03 13:10:00,34.0,22.3,30.35,NNW,337,0.0,0.0,62,0.00,,,0.00,WUHU21623XXSP,2014-02-03 18:10:00,
2014-02-03 13:15:00,34.0,21.9,30.35,NNW,337,0.0,0.0,61,0.00,,,0.00,WUHU21623XXSP,2014-02-03 18:15:00,
2014-02-03 13:20:00,34.2,22.1,30.35,NNW,337,0.0,0.0,61,0.00,,,0.00,WUHU21623XXSP,2014-02-03 18:20:00,
2014-02-03 13:25:00,34.3,22.3,30.35,NNW,337,0.0,0.0,61,0.00,,,0.00,WUHU21623XXSP,2014-02-03 18:25:00,
2014-02-03 13:30:00,34.9,22.5,30.35,NNW,337,0.0,0.0,60,0.00,,,0.00,WUHU21623XXSP,2014-02-03 18:30:00,
2014-02-03 13:35:00,34.9,22.8,30.35,NNW,337,0.0,0.0,60,0.00,,,0.00,WUHU21623XXSP,2014-02-03 18:35:00,
2014-02-03 13:40:00,34.9,22.5,30.35,NNW,337,0.0,0.0,60,0.00,,,0.00,WUHU21623XXSP,2014-02-03 18:40:00,
2014-02-03 13:49:00,34.5,22.1,30.35,NNW,337,0.0,0.0,60,0.00,,,0.00,WUHU21623XXSP,2014-02-03 18:49:00,
2014-02-03 13:54:00,34.5,22.1,30.35,NNW,337,0.0,0.0,60,0.00,,,0.00,WUHU21623XXSP,2014-02-03 18:54:00,
2014-02-03 13:59:00,34.7,22.3,30.35,NNW,337,0.0,0.0,60,0.00,,,0.00,WUHU21623XXSP,2014-02-03 18:59:00,
2014-02-03 14:04:00,35.2,22.4,30.35,NNW,337,2.2,2.2,59,0.00,,,0.00,WUHU21623XXSP,2014-02-03 19:04:00,
2014-02-03 14:09:00,34.9,22.0,30.35,NNW,337,2.2,2.2,58,0.00,,,0.00,WUHU21623XXSP,2014-02-03 19:09:00,
2014-02-03 14:14:00,34.0,20.7,30.35,NW,315,0.0,2.2,58,0.00,,,0.00,WUHU21623XXSP,2014-02-03 19:14:00,
2014-02-03 14:19:00,32.7,19.5,30.36,NW,315,0.0,0.0,58,0.00,,,0.00,WUHU21623XXSP,2014-02-03 19:19:00,
2014-02-03 14:24:00,32.0,18.9,30.36,NW,315,0.0,4.5,58,0.00,,,0.00,WUHU21623XXSP,2014-02-03 19:24:00,
2014-02-03 14:29:00,31.5,18.8,30.36,NW,315,0.0,4.5,59,0.00,,,0.00,WUHU21623XXSP,2014-02-03 19:29:00,
2014-02-03 14:34:00,30.9,18.7,30.36,NW,315,2.7,2.7,60,0.00,,,0.00,WUHU21623XXSP,2014-02-03 19:34:00,
2014-02-03 14:39:00,30.7,18.5,30.36,NW,315,0.0,2.7,60,0.00,,,0.00,WUHU21623XXSP,2014-02-03 19:39:00,
2014-02-03 14:44:00,30.6,18.3,30.36,NW,315,6.5,6.5,60,0.00,,,0.00,WUHU21623XXSP,2014-02-03 19:44:00,
2014-02-03 14:49:00,30.0,17.8,30.35,NW,315,4.9,7.2,60,0.00,,,0.00,WUHU21623XXSP,2014-02-03 19:49:00,
2014-02-03 14:54:00,29.8,17.6,30.35,NNW,337,5.4,7.2,61,0.00,,,0.00,WUHU21623XXSP,2014-02-03 19:54:00,
2014-02-03 14:59:00,29.8,18.0,30.36,NNW,337,0.0,5.4,61,0.00,,,0.00,WUHU21623XXSP,2014-02-03 19:59:00,
2014-02-03 15:04:00,30.0,18.5,30.36,NNW,337,0.0,0.0,62,0.00,,,0.00,WUHU21623XXSP,2014-02-03 20:04:00,
2014-02-03 15:09:00,30.6,18.7,30.36,North,0,6.0,6.0,61,0.00,,,0.00,WUHU21623XXSP,2014-02-03 20:09:00,
2014-02-03 15:14:00,30.6,18.7,30.36,NNE,22,2.5,6.0,61,0.00,,,0.00,WUHU21623XXSP,2014-02-03 20:14:00,
2014-02-03 15:19:00,30.7,18.9,30.37,NNE,22,0.0,2.7,61,0.00,,,0.00,WUHU21623XXSP,2014-02-03 20:19:00,
2014-02-03 15:24:00,30.7,18.9,30.37,NNE,22,0.0,5.8,61,0.00,,,0.00,WUHU21623XXSP,2014-02-03 20:24:00,
2014-02-03 15:29:00,30.7,18.9,30.37,NW,315,4.5,5.8,61,0.00,,,0.00,WUHU21623XXSP,2014-02-03 20:29:00,
2014-02-03 15:34:00,30.7,18.9,30.37,NNE,22,0.0,5.1,61,0.00,,,0.00,WUHU21623XXSP,2014-02-03 20:34:00,
2014-02-03 15:39:00,30.7,18.9,30.37,North,0,4.5,5.1,61,0.00,,,0.00,WUHU21623XXSP,2014-02-03 20:39:00,
2014-02-03 15:44:00,30.7,18.9,30.37,North,0,0.0,4.5,61,0.00,,,0.00,WUHU21623XXSP,2014-02-03 20:44:00,
2014-02-03 15:49:00,30.7,18.9,30.37,NNE,22,2.7,2.7,61,0.00,,,0.00,WUHU21623XXSP,2014-02-03 20:49:00,
2014-02-03 15:54:00,30.6,18.3,30.36,NNE,22,5.8,5.8,60,0.00,,,0.00,WUHU21623XXSP,2014-02-03 20:54:00,
2014-02-03 15:59:00,30.0,17.8,30.36,NNE,22,3.6,5.8,60,0.00,,,0.00,WUHU21623XXSP,2014-02-03 20:59:00,
2014-02-03 16:04:00,29.5,17.7,30.35,NNE,22,1.3,6.9,61,0.00,,,0.00,WUHU21623XXSP,2014-02-03 21:04:00,
2014-02-03 16:09:00,29.1,17.3,30.35,NNE,22,5.6,6.9,61,0.00,,,0.00,WUHU21623XXSP,2014-02-03 21:09:00,
2014-02-03 16:14:00,28.8,17.0,30.35,NNE,22,6.7,6.7,61,0.00,,,0.00,WUHU21623XXSP,2014-02-03 21:14:00,
2014-02-03 16:19:00,28.2,16.9,30.35,NNE,22,6.9,6.9,62,0.00,,,0.00,WUHU21623XXSP,2014-02-03 21:19:00,
2014-02-03 16:24:00,27.7,16.3,30.35,NNE,22,6.3,6.9,62,0.00,,,0.00,WUHU21623XXSP,2014-02-03 21:24:00,
2014-02-03 16:29:00,27.7,16.3,30.34,NE,45,4.5,7.4,62,0.00,,,0.00,WUHU21623XXSP,2014-02-03 21:29:00,
2014-02-03 16:34:00,27.3,16.0,30.34,NE,45,6.9,7.8,62,0.00,,,0.00,WUHU21623XXSP,2014-02-03 21:34:00,
2014-02-03 16:39:00,27.1,16.2,30.34,NE,45,8.7,8.7,63,0.00,,,0.00,WUHU21623XXSP,2014-02-03 21:39:00,
2014-02-03 16:44:00,26.6,15.6,30.34,NE,45,7.2,8.7,63,0.00,,,0.00,WUHU21623XXSP,2014-02-03 21:44:00,
2014-02-03 16:49:00,26.2,15.6,30.34,NNE,22,5.8,7.2,64,0.00,,,0.00,WUHU21623XXSP,2014-02-03 21:49:00,
2014-02-03 16:54:00,25.7,15.5,30.34,NNE,22,5.6,5.8,64,0.00,,,0.00,WUHU21623XXSP,2014-02-03 21:54:00,
2014-02-03 16:59:00,25.5,15.0,30.34,NNE,22,0.0,5.6,64,0.00,,,0.00,WUHU21623XXSP,2014-02-03 21:59:00,
2014-02-03 17:04:00,25.0,14.8,30.34,NNE,22,5.8,6.5,65,0.00,,,0.00,WUHU21623XXSP,2014-02-03 22:04:00,
2014-02-03 17:09:00,25.0,14.8,30.34,North,0,1.1,6.5,65,0.00,,,0.00,WUHU21623XXSP,2014-02-03 22:09:00,
2014-02-03 17:14:00,24.6,14.4,30.34,North,0,4.9,4.9,65,0.00,,,0.00,WUHU21623XXSP,2014-02-03 22:14:00,
2014-02-03 17:19:00,24.4,14.4,30.34,NNE,22,6.3,6.3,66,0.00,,,0.00,WUHU21623XXSP,2014-02-03 22:19:00,
2014-02-03 17:24:00,24.1,14.3,30.34,NNE,22,6.3,6.3,66,0.00,,,0.00,WUHU21623XXSP,2014-02-03 22:24:00,
2014-02-03 17:29:00,23.7,13.9,30.34,NNE,22,0.0,6.3,66,0.00,,,0.00,WUHU21623XXSP,2014-02-03 22:29:00,
2014-02-03 17:34:00,23.5,14.1,30.35,NNE,22,0.0,5.6,67,0.00,,,0.00,WUHU21623XXSP,2014-02-03 22:34:00,
2014-02-03 17:39:00,23.2,13.8,30.35,NNE,22,6.7,6.7,67,0.00,,,0.00,WUHU21623XXSP,2014-02-03 22:39:00,
2014-02-03 17:44:00,22.8,13.5,30.35,North,0,3.4,6.7,67,0.00,,,0.00,WUHU21623XXSP,2014-02-03 22:44:00,
2014-02-03 17:49:00,22.6,13.3,30.36,NNE,22,0.0,6.5,67,0.00,,,0.00,WUHU21623XXSP,2014-02-03 22:49:00,
2014-02-03 17:54:00,22.1,13.1,30.36,NNE,22,0.0,4.5,68,0.00,,,0.00,WUHU21623XXSP,2014-02-03 22:54:00,
2014-02-03 17:59:00,21.9,12.9,30.36,NNE,22,2.2,4.5,68,0.00,,,0.00,WUHU21623XXSP,2014-02-03 22:59:00,
2014-02-03 18:04:00,21.4,12.4,30.36,NNE,22,0.0,2.2,68,0.00,,,0.00,WUHU21623XXSP,2014-02-03 23:04:00,
2014-02-03 18:09:00,21.0,12.4,30.36,NNE,22,5.1,5.1,69,0.00,,,0.00,WUHU21623XXSP,2014-02-03 23:09:00,
2014-02-03 18:14:00,20.8,12.2,30.36,NNE,22,0.0,5.1,69,0.00,,,0.00,WUHU21623XXSP,2014-02-03 23:14:00,
2014-02-03 18:19:00,20.5,11.9,30.36,NNE,22,0.0,3.4,69,0.00,,,0.00,WUHU21623XXSP,2014-02-03 23:19:00,
2014-02-03 18:24:00,20.3,11.7,30.36,NNE,22,0.0,3.4,69,0.00,,,0.00,WUHU21623XXSP,2014-02-03 23:24:00,
2014-02-03 18:29:00,20.1,11.8,30.36,NNE,22,0.0,3.1,70,0.00,,,0.00,WUHU21623XXSP,2014-02-03 23:29:00,
2014-02-03 18:34:00,19.6,11.3,30.37,NNE,22,0.0,5.8,70,0.00,,,0.00,WUHU21623XXSP,2014-02-03 23:34:00,
2014-02-03 18:39:00,19.6,11.3,30.37,North,0,0.0,5.8,70,0.00,,,0.00,WUHU21623XXSP,2014-02-03 23:39:00,
2014-02-03 18:44:00,19.0,10.8,30.37,North,0,0.0,0.0,70,0.00,,,0.00,WUHU21623XXSP,2014-02-03 23:44:00,
2014-02-03 18:49:00,18.3,10.1,30.37,NNW,337,0.0,0.0,70,0.00,,,0.00,WUHU21623XXSP,2014-02-03 23:49:00,
2014-02-03 18:54:00,17.8,9.9,30.38,NNW,337,0.0,0.0,71,0.00,,,0.00,WUHU21623XXSP,2014-02-03 23:54:00,
2014-02-03 18:59:00,17.4,9.6,30.37,NNW,337,0.0,0.0,71,0.00,,,0.00,WUHU21623XXSP,2014-02-03 23:59:00,
2014-02-03 19:04:00,16.9,9.1,30.37,North,0,0.0,0.0,71,0.00,,,0.00,WUHU21623XXSP,2014-02-04 00:04:00,
2014-02-03 19:09:00,16.9,9.1,30.37,NNE,22,0.0,0.0,71,0.00,,,0.00,WUHU21623XXSP,2014-02-04 00:09:00,
2014-02-03 19:14:00,16.9,9.4,30.38,NE,45,0.0,0.0,72,0.00,,,0.00,WUHU21623XXSP,2014-02-04 00:14:00,
2014-02-03 19:19:00,17.2,10.0,30.37,NNE,22,4.9,4.9,73,0.00,,,0.00,WUHU21623XXSP,2014-02-04 00:19:00,
2014-02-03 19:24:00,17.4,10.2,30.37,NNE,22,0.0,4.9,73,0.00,,,0.00,WUHU21623XXSP,2014-02-04 00:24:00,
2014-02-03 19:29:00,17.4,10.5,30.37,NNE,22,0.0,4.7,74,0.00,,,0.00,WUHU21623XXSP,2014-02-04 00:29:00,
2014-02-03 19:34:00,17.8,10.8,30.37,NE,45,3.8,4.0,74,0.00,,,0.00,WUHU21623XXSP,2014-02-04 00:34:00,
2014-02-03 19:39:00,17.8,10.8,30.37,NE,45,6.5,6.5,74,0.00,,,0.00,WUHU21623XXSP,2014-02-04 00:39:00,
2014-02-03 19:44:00,17.8,11.1,30.37,NE,45,0.0,6.5,75,0.00,,,0.00,WUHU21623XXSP,2014-02-04 00:44:00,
2014-02-03 19:49:00,18.0,11.3,30.37,ENE,67,0.0,4.7,75,0.00,,,0.00,WUHU21623XXSP,2014-02-04 00:49:00,
2014-02-03 19:54:00,18.1,11.4,30.36,NE,45,0.0,4.7,75,0.00,,,0.00,WUHU21623XXSP,2014-02-04 00:54:00,
2014-02-03 19:59:00,18.1,11.4,30.36,ENE,67,0.0,0.0,75,0.00,,,0.00,WUHU21623XXSP,2014-02-04 00:59:00,
2014-02-03 20:04:00,18.1,11.4,30.37,ENE,67,0.0,0.0,75,0.00,,,0.00,WUHU21623XXSP,2014-02-04 01:04:00,
2014-02-03 20:09:00,18.0,11.3,30.36,ENE,67,0.0,0.0,75,0.00,,,0.00,WUHU21623XXSP,2014-02-04 01:09:00,
2014-02-03 20:14:00,17.8,11.1,30.37,ENE,67,0.0,0.0,75,0.00,,,0.00,WUHU21623XXSP,2014-02-04 01:14:00,
2014-02-03 20:19:00,17.8,11.1,30.36,NE,45,0.0,0.0,75,0.00,,,0.00,WUHU21623XXSP,2014-02-04 01:19:00,
2014-02-03 20:24:00,17.8,11.1,30.36,NE,45,0.0,0.0,75,0.00,,,0.00,WUHU21623XXSP,2014-02-04 01:24:00,
2014-02-03 20:29:00,17.8,11.1,30.37,NE,45,4.7,4.7,75,0.00,,,0.00,WUHU21623XXSP,2014-02-04 01:29:00,
2014-02-03 20:34:00,17.4,10.8,30.37,NE,45,0.0,4.7,75,0.00,,,0.00,WUHU21623XXSP,2014-02-04 01:34:00,
2014-02-03 20:39:00,17.2,10.6,30.37,NE,45,0.0,0.0,75,0.00,,,0.00,WUHU21623XXSP,2014-02-04 01:39:00,
2014-02-03 20:44:00,17.1,10.4,30.38,NE,45,0.0,0.0,75,0.00,,,0.00,WUHU21623XXSP,2014-02-04 01:44:00,
2014-02-03 20:49:00,16.3,9.7,30.37,NE,45,0.0,0.0,75,0.00,,,0.00,WUHU21623XXSP,2014-02-04 01:49:00,
2014-02-03 20:54:00,16.0,9.4,30.37,NE,45,0.0,0.0,75,0.00,,,0.00,WUHU21623XXSP,2014-02-04 01:54:00,
2014-02-03 20:59:00,15.6,9.1,30.37,NE,45,0.0,0.0,75,0.00,,,0.00,WUHU21623XXSP,2014-02-04 01:59:00,
2014-02-03 21:04:00,14.7,8.2,30.38,NE,45,0.0,0.0,75,0.00,,,0.00,WUHU21623XXSP,2014-02-04 02:04:00,
2014-02-03 21:09:00,14.4,7.9,30.38,NE,45,0.0,0.0,75,0.00,,,0.00,WUHU21623XXSP,2014-02-04 02:09:00,
2014-02-03 21:14:00,13.8,7.3,30.38,NE,45,0.0,0.0,75,0.00,,,0.00,WUHU21623XXSP,2014-02-04 02:14:00,
2014-02-03 21:19:00,13.3,6.8,30.39,NE,45,0.0,0.0,75,0.00,,,0.00,WUHU21623XXSP,2014-02-04 02:19:00,
2014-02-03 21:24:00,12.9,6.4,30.39,NE,45,0.0,0.0,75,0.00,,,0.00,WUHU21623XXSP,2014-02-04 02:24:00,
2014-02-03 21:29:00,12.7,6.3,30.40,NE,45,0.0,0.0,75,0.00,,,0.00,WUHU21623XXSP,2014-02-04 02:29:00,
2014-02-03 21:34:00,12.6,6.1,30.40,NE,45,0.0,0.0,75,0.00,,,0.00,WUHU21623XXSP,2014-02-04 02:34:00,
2014-02-03 21:39:00,12.4,6.2,30.40,NE,45,0.0,0.0,76,0.00,,,0.00,WUHU21623XXSP,2014-02-04 02:39:00,
2014-02-03 21:44:00,12.4,6.2,30.40,NE,45,0.0,0.0,76,0.00,,,0.00,WUHU21623XXSP,2014-02-04 02:44:00,
2014-02-03 21:49:00,12.2,6.0,30.40,NE,45,0.0,0.0,76,0.00,,,0.00,WUHU21623XXSP,2014-02-04 02:49:00,
2014-02-03 21:54:00,12.4,6.2,30.39,NE,45,0.0,0.0,76,0.00,,,0.00,WUHU21623XXSP,2014-02-04 02:54:00,
2014-02-03 21:59:00,12.4,6.2,30.40,NE,45,0.0,0.0,76,0.00,,,0.00,WUHU21623XXSP,2014-02-04 02:59:00,
2014-02-03 22:04:00,12.0,5.8,30.40,NE,45,0.0,0.0,76,0.00,,,0.00,WUHU21623XXSP,2014-02-04 03:04:00,
2014-02-03 22:09:00,11.8,5.9,30.41,NE,45,0.0,0.0,77,0.00,,,0.00,WUHU21623XXSP,2014-02-04 03:09:00,
2014-02-03 22:14:00,11.7,5.8,30.40,NE,45,0.0,0.0,77,0.00,,,0.00,WUHU21623XXSP,2014-02-04 03:14:00,
2014-02-03 22:19:00,11.3,5.4,30.40,NE,45,0.0,0.0,77,0.00,,,0.00,WUHU21623XXSP,2014-02-04 03:19:00,
2014-02-03 22:24:00,11.1,5.2,30.40,NE,45,0.0,0.0,77,0.00,,,0.00,WUHU21623XXSP,2014-02-04 03:24:00,
2014-02-03 22:29:00,11.1,5.2,30.40,NE,45,0.0,0.0,77,0.00,,,0.00,WUHU21623XXSP,2014-02-04 03:29:00,
2014-02-03 22:34:00,11.1,5.2,30.39,NE,45,0.0,0.0,77,0.00,,,0.00,WUHU21623XXSP,2014-02-04 03:34:00,
2014-02-03 22:39:00,11.1,5.2,30.39,NE,45,0.0,0.0,77,0.00,,,0.00,WUHU21623XXSP,2014-02-04 03:39:00,
2014-02-03 22:44:00,11.3,5.7,30.39,NE,45,0.0,0.0,78,0.00,,,0.00,WUHU21623XXSP,2014-02-04 03:44:00,
2014-02-03 22:49:00,11.5,5.9,30.38,NE,45,0.0,0.0,78,0.00,,,0.00,WUHU21623XXSP,2014-02-04 03:49:00,
2014-02-03 22:54:00,11.7,6.0,30.39,NE,45,0.0,0.0,78,0.00,,,0.00,WUHU21623XXSP,2014-02-04 03:54:00,
2014-02-03 22:59:00,11.7,6.0,30.39,NE,45,0.0,0.0,78,0.00,,,0.00,WUHU21623XXSP,2014-02-04 03:59:00,
2014-02-03 23:04:00,11.5,5.9,30.39,NE,45,0.0,0.0,78,0.00,,,0.00,WUHU21623XXSP,2014-02-04 04:04:00,
2014-02-03 23:09:00,11.3,5.7,30.39,NE,45,0.0,0.0,78,0.00,,,0.00,WUHU21623XXSP,2014-02-04 04:09:00,
2014-02-03 23:14:00,11.1,5.5,30.39,NE,45,0.0,0.0,78,0.00,,,0.00,WUHU21623XXSP,2014-02-04 04:14:00,
2014-02-03 23:19:00,11.3,6.0,30.39,NE,45,0.0,0.0,79,0.00,,,0.00,WUHU21623XXSP,2014-02-04 04:19:00,
2014-02-03 23:24:00,11.7,6.3,30.39,NE,45,0.0,0.0,79,0.00,,,0.00,WUHU21623XXSP,2014-02-04 04:24:00,
2014-02-03 23:29:00,12.0,6.5,30.39,NE,45,5.8,5.8,79,0.00,,,0.00,WUHU21623XXSP,2014-02-04 04:29:00,
2014-02-03 23:35:00,12.6,7.5,30.39,NE,45,7.4,7.4,80,0.00,,,0.00,WUHU21623XXSP,2014-02-04 04:35:00,
2014-02-03 23:40:00,13.3,8.2,30.38,NE,45,6.0,7.4,80,0.00,,,0.00,WUHU21623XXSP,2014-02-04 04:40:00,
2014-02-03 23:45:00,13.6,8.6,30.38,NE,45,5.8,7.4,80,0.00,,,0.00,WUHU21623XXSP,2014-02-04 04:45:00,
2014-02-03 23:50:00,13.8,8.8,30.38,NNE,22,7.6,7.6,80,0.00,,,0.00,WUHU21623XXSP,2014-02-04 04:50:00,
2014-02-03 23:55:00,13.8,9.1,30.37,NE,45,6.3,7.6,81,0.00,,,0.00,WUHU21623XXSP,2014-02-04 04:55:00,